| time (UTC) | temp F | wind direction | speed knots | gust knots | rain 1hr in | rain 24hr in | rain mn in | humidity % | barometer mb |
| 20260504194523 | 74 | 205 | 0.0 | 3.5 | 0.00 | 0.00 | 0.00 | 34 | 1010.0 |
| 20260504193020 | 73 | 257 | 0.0 | 3.5 | 0.00 | 0.00 | 0.00 | 34 | 1010.0 |
| 20260504191517 | 74 | 248 | 0.9 | 3.5 | 0.00 | 0.00 | 0.00 | 33 | 1010.3 |
| 20260504190019 | 74 | 134 | 0.9 | 7.0 | 0.00 | 0.00 | 0.00 | 32 | 1010.4 |
| 20260504184526 | 73 | 243 | 0.9 | 2.6 | 0.00 | 0.00 | 0.00 | 34 | 1010.6 |
| 20260504183007 | 72 | 240 | 0.0 | 2.6 | 0.00 | 0.00 | 0.00 | 38 | 1010.8 |
| 20260504181504 | 71 | 127 | 0.0 | 2.6 | 0.00 | 0.00 | 0.00 | 35 | 1011.1 |
| 20260504180003 | 71 | 193 | 0.9 | 6.1 | 0.00 | 0.00 | 0.00 | 34 | 1011.3 |
| 20260504174600 | 71 | 141 | 0.0 | 2.6 | 0.00 | 0.00 | 0.00 | 35 | 1011.4 |
| 20260504173104 | 71 | 267 | 0.0 | 2.6 | 0.00 | 0.00 | 0.00 | 39 | 1011.6 |
| 20260504171558 | 70 | 249 | 0.0 | 3.5 | 0.00 | 0.00 | 0.00 | 37 | 1011.8 |
| 20260504081521 | 45 | 84 | 0.0 | 0.0 | 0.00 | 0.00 | 0.00 | 64 | 1014.1 |
| 20260504050007 | 47 | 93 | 0.0 | 0.0 | 0.00 | 0.00 | 0.00 | 59 | 1013.6 |
| 20260504044504 | 47 | 92 | 0.0 | 0.0 | 0.00 | 0.00 | 0.00 | 59 | 1013.5 |
| 20260504043001 | 47 | 99 | 0.0 | 0.0 | 0.00 | 0.00 | 0.00 | 59 | 1013.5 |
| 20260504041601 | 47 | 99 | 0.0 | 0.0 | 0.00 | 0.00 | 0.00 | 59 | 1013.4 |
| 20260504040055 | 48 | 99 | 0.0 | 0.9 | 0.00 | 0.00 | 0.00 | 57 | 1013.3 |
| 20260504034601 | 48 | 96 | 0.0 | 0.0 | 0.00 | 0.00 | 0.00 | 58 | 1013.1 |
| 20260504033058 | 48 | 96 | 0.0 | 0.0 | 0.00 | 0.00 | 0.00 | 57 | 1013.1 |
| 20260504031605 | 48 | 96 | 0.0 | 0.0 | 0.00 | 0.00 | 0.00 | 57 | 1013.1 |
| 20260504030111 | 48 | 96 | 0.0 | 0.0 | 0.00 | 0.00 | 0.00 | 55 | 1013.0 |
| 20260504024552 | 48 | 96 | 0.0 | 0.0 | 0.00 | 0.00 | 0.00 | 56 | 1013.0 |
| 20260504023050 | 48 | 75 | 0.0 | 0.0 | 0.00 | 0.00 | 0.00 | 56 | 1013.0 |
| 20260504021549 | 49 | 75 | 0.0 | 0.0 | 0.00 | 0.00 | 0.00 | 56 | 1013.0 |
| 20260504020050 | 49 | 75 | 0.0 | 0.0 | 0.00 | 0.00 | 0.00 | 51 | 1013.1 |
| 20260504014548 | 49 | 115 | 0.0 | 0.0 | 0.00 | 0.00 | 0.00 | 53 | 1013.0 |
| 20260504013050 | 49 | 148 | 0.0 | 0.0 | 0.00 | 0.00 | 0.00 | 52 | 1012.8 |
| 20260504011548 | 50 | 148 | 0.0 | 0.0 | 0.00 | 0.00 | 0.00 | 50 | 1012.6 |
| 20260504010047 | 50 | 148 | 0.0 | 0.0 | 0.00 | 0.00 | 0.00 | 51 | 1012.4 |
| 20260504004547 | 51 | 148 | 0.0 | 0.0 | 0.00 | 0.00 | 0.00 | 48 | 1012.3 |
| 20260504003047 | 51 | 148 | 0.0 | 0.0 | 0.00 | 0.00 | 0.00 | 47 | 1012.1 |
| 20260504001549 | 52 | 148 | 0.0 | 0.0 | 0.00 | 0.00 | 0.00 | 47 | 1011.9 |
| 20260504000106 | 53 | 148 | 0.0 | 0.0 | 0.00 | 0.00 | 0.00 | 46 | 1011.7 |
| 20260503234544 | 54 | 148 | 0.0 | 0.0 | 0.00 | 0.00 | 0.00 | 46 | 1011.5 |
| 20260503233044 | 55 | 148 | 0.0 | 0.0 | 0.00 | 0.00 | 0.00 | 43 | 1011.4 |
| 20260503231543 | 55 | 151 | 0.0 | 0.0 | 0.00 | 0.00 | 0.00 | 41 | 1011.3 |
| 20260503230043 | 56 | 165 | 0.0 | 0.9 | 0.00 | 0.00 | 0.00 | 38 | 1011.2 |
| 20260503224541 | 56 | 181 | 0.0 | 1.7 | 0.00 | 0.00 | 0.00 | 38 | 1011.1 |
| 20260503223041 | 57 | 222 | 0.0 | 0.9 | 0.00 | 0.00 | 0.00 | 38 | 1011.1 |
| 20260503221541 | 58 | 231 | 0.0 | 0.9 | 0.00 | 0.00 | 0.00 | 36 | 1010.9 |
| 20260503220040 | 58 | 239 | 0.0 | 0.9 | 0.00 | 0.00 | 0.00 | 35 | 1010.9 |
| 20260503214539 | 59 | 4 | 0.0 | 1.7 | 0.00 | 0.00 | 0.00 | 35 | 1010.9 |
| 20260503213039 | 60 | 26 | 0.0 | 1.7 | 0.00 | 0.00 | 0.00 | 35 | 1010.8 |
| 20260503211538 | 61 | 211 | 0.0 | 0.9 | 0.00 | 0.00 | 0.00 | 37 | 1010.9 |
| 20260503210038 | 60 | 43 | 0.0 | 2.6 | 0.00 | 0.00 | 0.00 | 36 | 1010.8 |
| 20260503204537 | 59 | 5 | 0.0 | 1.7 | 0.00 | 0.00 | 0.00 | 35 | 1010.9 |
| 20260503203042 | 61 | 36 | 0.0 | 1.7 | 0.00 | 0.00 | 0.00 | 36 | 1010.6 |
| 20260503201536 | 63 | 328 | 0.0 | 1.7 | 0.00 | 0.00 | 0.00 | 36 | 1010.9 |
| 20260503200035 | 62 | 281 | 0.0 | 1.7 | 0.00 | 0.00 | 0.00 | 37 | 1011.0 |